• In Moldova, Republic
  • List of Countries
  • For 7 days
  • Water Temperature
  • Satellite Maps
  • Weather Map
  • Weather Widgets
  • user-avatar
    Login

    Hourly Weather Mayrhofen

    Today, 24 January, Wednesday

    Time Temperature Precipitation Wind Pressure Humidity
    00:00 -7°C° 0 mm 1 mps 620 mmHg 66%
    01:00 -6°C° 0 mm 1 mps 620 mmHg 64%
    02:00 -6°C° 0 mm 1 mps 620 mmHg 63%
    03:00 -6°C° 0 mm 1 mps 620 mmHg 62%
    04:00 -6°C° 0 mm 1 mps 620 mmHg 61%
    05:00 -6°C° 0 mm 1 mps 620 mmHg 60%
    06:00 -6°C° 0 mm 1 mps 620 mmHg 59%
    07:00 -6°C° 0 mm 1 mps 620 mmHg 58%
    08:00 -3°C° 0 mm 1 mps 620 mmHg 61%
    09:00 -1°C° 0 mm 1 mps 621 mmHg 65%
    10:00 0°C° 0 mm 1 mps 622 mmHg 68%
    11:00 -1°C° 0 mm 2 mps 621 mmHg 75%
    12:00 +1°C° 0 mm 2 mps 621 mmHg 82%
    13:00 +2°C° 0 mm 2 mps 621 mmHg 89%
    14:00 +1°C° 0 mm 2 mps 621 mmHg 87%
    15:00 +1°C° 0 mm 2 mps 620 mmHg 85%
    16:00 -1°C° 0 mm 2 mps 620 mmHg 84%
    17:00 -2°C° 0 mm 2 mps 620 mmHg 80%
    18:00 -3°C° 0 mm 2 mps 619 mmHg 76%
    19:00 -6°C° 0 mm 3 mps 619 mmHg 72%
    20:00 -6°C° 0 mm 3 mps 619 mmHg 71%
    21:00 -6°C° 0 mm 3 mps 619 mmHg 71%
    22:00 -6°C° 0 mm 3 mps 618 mmHg 70%
    23:00 -6°C° 0 mm 2 mps 618 mmHg 69%

    Tomorrow, 25 January, Thursday

    Time Temperature Precipitation Wind Pressure Humidity
    00:00 -6°C° 0 mm 2 mps 618 mmHg 69%
    01:00 -6°C° 0 mm 2 mps 618 mmHg 69%
    02:00 -6°C° 0 mm 2 mps 618 mmHg 69%
    03:00 -6°C° 0 mm 2 mps 617 mmHg 69%
    04:00 -6°C° 0 mm 2 mps 617 mmHg 69%
    05:00 -6°C° 0 mm 2 mps 617 mmHg 70%
    06:00 -6°C° 0 mm 2 mps 617 mmHg 71%
    07:00 -6°C° 0 mm 2 mps 617 mmHg 72%
    08:00 -5°C° 0 mm 2 mps 617 mmHg 74%
    09:00 -3°C° 0 mm 2 mps 617 mmHg 77%
    10:00 -2°C° 0 mm 3 mps 617 mmHg 80%
    11:00 -2°C° 0 mm 3 mps 617 mmHg 83%
    12:00 -1°C° 0 mm 3 mps 616 mmHg 86%
    13:00 0°C° 0 mm 3 mps 616 mmHg 90%
    14:00 -1°C° 0 mm 3 mps 616 mmHg 91%
    15:00 -1°C° 0 mm 3 mps 615 mmHg 92%
    16:00 -2°C° 0 mm 3 mps 615 mmHg 93%
    17:00 -2°C° 0 mm 3 mps 615 mmHg 92%
    18:00 -4°C° 0 mm 3 mps 615 mmHg 92%
    19:00 -4°C° 0 mm 3 mps 614 mmHg 91%
    20:00 -4°C° 0 mm 3 mps 614 mmHg 91%
    21:00 -4°C° 0 mm 3 mps 614 mmHg 91%
    22:00 -4°C° 0 mm 3 mps 614 mmHg 91%
    23:00 -4°C° 0 mm 3 mps 614 mmHg 91%

    Day after tomorrow, 26 January, Friday

    Time Temperature Precipitation Wind Pressure Humidity
    00:00 -4°C° 0 mm 3 mps 613 mmHg 91%
    01:00 -4°C° 0 mm 3 mps 613 mmHg 91%
    02:00 -5°C° 0.1 mm 3 mps 613 mmHg 91%
    03:00 -5°C° 0.1 mm 3 mps 612 mmHg 91%
    04:00 -5°C° 0.1 mm 3 mps 612 mmHg 91%
    05:00 -5°C° 0.1 mm 3 mps 612 mmHg 91%
    06:00 -5°C° 0.1 mm 3 mps 612 mmHg 91%
    07:00 -5°C° 0.1 mm 3 mps 612 mmHg 91%
    08:00 -4°C° 0.1 mm 3 mps 612 mmHg 92%
    09:00 -4°C° 0.1 mm 3 mps 613 mmHg 93%
    10:00 -2°C° 0.1 mm 3 mps 613 mmHg 94%
    11:00 -2°C° 0.1 mm 2 mps 613 mmHg 94%
    12:00 -1°C° 0.1 mm 2 mps 613 mmHg 95%
    13:00 -1°C° 0.1 mm 2 mps 613 mmHg 96%
    14:00 -1°C° 0.3 mm 2 mps 613 mmHg 96%
    15:00 -2°C° 0.3 mm 2 mps 613 mmHg 96%
    16:00 -2°C° 0.3 mm 2 mps 613 mmHg 96%
    17:00 -3°C° 0.9 mm 2 mps 613 mmHg 96%
    18:00 -3°C° 0.9 mm 2 mps 614 mmHg 96%
    19:00 -2°C° 0.9 mm 1 mps 614 mmHg 97%
    20:00 -2°C° 1.2 mm 1 mps 614 mmHg 97%
    21:00 -2°C° 1.2 mm 1 mps 614 mmHg 97%
    22:00 -2°C° 1.2 mm 1 mps 614 mmHg 97%
    23:00 -2°C° 1.6 mm 1 mps 614 mmHg 97%

    27 January, Saturday

    Time Temperature Precipitation Wind Pressure Humidity
    00:00 -2°C° 1.6 mm 1 mps 615 mmHg 97%
    01:00 -2°C° 1.6 mm 1 mps 615 mmHg 97%
    02:00 -2°C° 1.6 mm 1 mps 615 mmHg 97%
    03:00 -3°C° 1.6 mm 1 mps 615 mmHg 97%
    04:00 -5°C° 1.6 mm 2 mps 615 mmHg 97%
    05:00 -3°C° 1.4 mm 1 mps 615 mmHg 97%
    06:00 -3°C° 1.4 mm 1 mps 615 mmHg 97%
    07:00 -3°C° 1.4 mm 1 mps 616 mmHg 97%
    08:00 -3°C° 1.3 mm 1 mps 616 mmHg 96%
    09:00 -3°C° 1.3 mm 1 mps 617 mmHg 96%
    10:00 -2°C° 1.3 mm 1 mps 617 mmHg 96%
    11:00 -2°C° 0.8 mm 1 mps 618 mmHg 95%
    12:00 -1°C° 0.8 mm 1 mps 618 mmHg 95%
    13:00 -1°C° 0.8 mm 1 mps 619 mmHg 94%
    14:00 -1°C° 0.3 mm 1 mps 619 mmHg 94%
    15:00 0°C° 0.3 mm 1 mps 620 mmHg 95%
    16:00 0°C° 0.3 mm 1 mps 620 mmHg 95%
    17:00 -1°C° 0.1 mm 1 mps 620 mmHg 95%
    18:00 -2°C° 0.1 mm 1 mps 620 mmHg 94%
    19:00 -3°C° 0.1 mm 1 mps 621 mmHg 94%
    20:00 -3°C° 0 mm 1 mps 621 mmHg 93%
    21:00 -4°C° 0 mm 1 mps 621 mmHg 93%
    22:00 -4°C° 0 mm 1 mps 621 mmHg 92%
    23:00 -6°C° 0 mm 1 mps 622 mmHg 90%

    28 January, Sunday

    Time Temperature Precipitation Wind Pressure Humidity
    00:00 -6°C° 0 mm 1 mps 622 mmHg 88%
    01:00 -6°C° 0 mm 1 mps 622 mmHg 86%
    02:00 -6°C° 0 mm 1 mps 622 mmHg 86%
    03:00 -6°C° 0 mm 1 mps 622 mmHg 85%
    04:00 -6°C° 0 mm 1 mps 622 mmHg 84%
    05:00 -6°C° 0 mm 1 mps 622 mmHg 83%
    06:00 -6°C° 0 mm 1 mps 623 mmHg 82%
    07:00 -6°C° 0 mm 1 mps 623 mmHg 82%
    08:00 -4°C° 0 mm 1 mps 624 mmHg 82%
    09:00 -2°C° 0 mm 1 mps 625 mmHg 81%
    10:00 0°C° 0 mm 1 mps 626 mmHg 81%
    11:00 0°C° 0 mm 1 mps 626 mmHg 86%
    12:00 0°C° 0 mm 0 mps 626 mmHg 90%
    13:00 +1°C° 0 mm 0 mps 626 mmHg 95%
    14:00 0°C° 0 mm 0 mps 626 mmHg 95%
    15:00 0°C° 0 mm 0 mps 626 mmHg 95%
    16:00 0°C° 0 mm 0 mps 626 mmHg 94%
    17:00 -1°C° 0 mm 1 mps 625 mmHg 92%
    18:00 -2°C° 0 mm 1 mps 625 mmHg 89%
    19:00 -3°C° 0 mm 1 mps 625 mmHg 86%
    20:00 -4°C° 0 mm 1 mps 625 mmHg 82%
    21:00 -4°C° 0 mm 1 mps 625 mmHg 78%
    22:00 -4°C° 0 mm 1 mps 625 mmHg 75%
    23:00 -4°C° 0 mm 1 mps 625 mmHg 73%

    29 January, Monday

    Time Temperature Precipitation Wind Pressure Humidity
    00:00 -4°C° 0 mm 1 mps 625 mmHg 71%
    01:00 -4°C° 0 mm 1 mps 625 mmHg 69%
    02:00 -4°C° 0 mm 1 mps 624 mmHg 67%
    03:00 -6°C° 0 mm 1 mps 624 mmHg 66%
    04:00 -6°C° 0 mm 1 mps 624 mmHg 64%
    05:00 -6°C° 0 mm 1 mps 624 mmHg 64%
    06:00 -6°C° 0 mm 1 mps 624 mmHg 63%
    07:00 -6°C° 0 mm 1 mps 624 mmHg 63%
    08:00 -3°C° 0 mm 1 mps 624 mmHg 65%
    09:00 -1°C° 0 mm 1 mps 625 mmHg 68%
    10:00 0°C° 0 mm 1 mps 626 mmHg 71%
    11:00 +1°C° 0 mm 1 mps 626 mmHg 78%
    12:00 +2°C° 0 mm 1 mps 625 mmHg 84%
    13:00 +1°C° 0 mm 0 mps 625 mmHg 91%
    14:00 +1°C° 0 mm 0 mps 625 mmHg 90%
    15:00 0°C° 0 mm 0 mps 625 mmHg 89%
    16:00 0°C° 0 mm 0 mps 624 mmHg 88%
    17:00 -1°C° 0 mm 1 mps 624 mmHg 84%
    18:00 -2°C° 0 mm 1 mps 623 mmHg 80%
    19:00 -4°C° 0 mm 1 mps 623 mmHg 77%
    20:00 -4°C° 0 mm 1 mps 622 mmHg 74%
    21:00 -6°C° 0 mm 1 mps 622 mmHg 71%
    22:00 -6°C° 0 mm 1 mps 622 mmHg 68%
    23:00 -6°C° 0 mm 1 mps 622 mmHg 66%
    Show more